Showing default

O3B FM11, 40349

Orbit data source: Space-Track

O3B FM11, 40349 is a payload satellite owned by O3B (JE) that was launched on Thu, 18 Dec 2014 UTC via a SOYUZ-ST-B launch vehicle from the French Guiana (FRGUI). Payload-class satellites include a variety of spacecraft equipped with specific instruments for various scientific and technological missions. These include communications satellites like Starlink; space stations such as the ISS; scientific satellites like the Hubble; Earth observation satellites from companies like Planet Labs, Umbra, and HawkEye 360; GPS; miniature CubeSats for education and research; and military/defense satellites.

Loading next visibility...
Identifier
40349, 2014-083B
Orbit
Active
Country
Flag of UnknownUnknown / O3B
Related business
Manufacturer
Thales Alenia
Mission
Operational Commercial Communications
Bus & Motor
PRISMA?, LS-400 AOCS?
Mass
700 kg wet, ~500 kg dry
Launch date (UTC)
2014-12-18 (12 years ago)
Launch vehicle
SOYUZ-ST-B
Launch site
French Guiana (FRGUI)
Object type
Payload
Rocket body
Debris
Shape & HBR
Trap Box + 2 Pan, 6.0 m
Radar Cross Section
21.980 m², Large (>1 m²)

Expand to show TLE details & history
Last TLE update: 12 hours ago

TLE from 12 hours ago
0 O3B FM11
1 40349U 14083B   26267.11786740 -.00000019  00000-0  00000-0 0  9994
2 40349   0.0535 348.2804 0002159 180.3033 191.4249  5.00115559214861
Epoch: 2026-09-24T02:49Z
TLE epoch observation values (Epoch: 2026-09-24T02:49:43.743Z)
Latitude
0.01009°
Longitude
-45.39152°
Altitude
8,067.429 km
Speed
5.253 km/s
True Right ascension
23h 59m 59s
True Declination
0° 00' 36"
Sunlit
Object was in full shadow at epoch
Visualization orbit readout
Latitude
Unknown
Longitude
Unknown
Altitude
Unknown
Speed
Unknown
Apparent Right ascension
Unknown
Apparent Declination
Unknown
Sunlit
N/A
Visualization observer readout
Local Sidereal Time
08:00:17
Azimuth
Unknown
Elevation
Unknown
Doppler factor
Unknown
Orbital elements
Apogee altitude
8,072.067 km
Perigee altitude
8,065.828 km
Semi-major axis
14,447.085 km
Eccentricity
0.00022
Inclination
0.0535°
RAAN
348.2804°
Arg. of periapsis
180.3033°
True anomaly
191.42°
Mean anomaly
191.4249°
Eccentric anomaly
191.42245°
Mean motion
1.24989 °/min
Orbital period
288.02 mins
BSTAR
0
Loading maneuver chart data...
Computing Atmospheric mass density...
Loading historical data...
Loading historical data...
Loading historical data...
Loading historical data...
Loading historical data...
Loading historical data...
Loading historical data...
Other satellites on launch #83 in the year 2014 (2014-12-18 UTC)

Documentation

Showing up to 5 results
|